Hourly Weather Roundup
Issued by NWS Central Illinois

Home | Current Version | Previous Version | Text Only | Print | Product List | Glossary On
Versions: 1 2 3 4 5 6 7 8 9 10 11 12 13 14 15 16 17 18 19 20 21 22 23 24 25 26 27 28 29 30 31 32 33 34 35 36 37 38 39 40 41 42 43 44 45 46 47 48 49 50
127
NZUS43 KILX 231910
HWRILX

Area Weather Roundup
National Weather Service Lincoln IL
200 PM CDT FRI JUN 23 2017

NOTE:  "FAIR" indicates few or no clouds below 12,000 feet, with
       no sigificant weather and/or obstructions to visibility.


CITY           SKY/WX    TMP DP  RH WIND       PRES   REMARKS
Bloomington    CLOUDY    80  53  39 N17       29.76S HX  80
Champaign      CLOUDY    77  67  71 N12       29.73F
Danville       CLOUDY    73  66  80 N10       29.70S
Decatur        PTSUNNY   79  67  66 N15G22    29.74R HX  81
Effingham      CLOUDY    75  74  98 NE6       29.71S
Flora          CLOUDY    80  74  80 W7        29.68S HX  84
Galesburg      SUNNY     79  57  45 NW10      29.80S HX  80
Jacksonville   SUNNY     82  53  35 N15G22    29.77S HX  81
Lacon          MOSUNNY   80  58  45 NW9       29.75S HX  81
Lawrenceville  CLOUDY    77  74  90 SW8       29.69R
Litchfield     PTSUNNY   80  67  65 N23       29.73F HX  82
$$


CITY           SKY/WX    TMP DP  RH WIND       PRES   REMARKS
Lincoln        SUNNY     82  59  44 N12G18    29.75F HX  82
Macomb         SUNNY     80  53  38 N13       29.81S HX  80
Mattoon        CLOUDY    77  74  90 N10       29.70S
Mt Carmel AP   CLOUDY    76  72  88 SW8       29.68S
Olney-Noble AP CLOUDY    77  77 100 CALM      29.68S
Paris AP       CLOUDY    75  73  92 N7        29.72S
Peoria         MOSUNNY   82  53  36 N9        29.76S HX  81
Pontiac        CLOUDY    79  57  45 N13G20    29.75F HX  80
Rantoul        CLOUDY    79  67  65 N16       29.73F HX  81
Robinson       HVY RAIN  74  73  94 NW6       29.71R
Springfield    SUNNY     84  54  35 NE18      29.75F HX  83
Taylorville    CLOUDY    80  65  60 N16G23    29.74S HX  81
$$

...REGIONAL REPORTS...


CITY           SKY/WX    TMP DP  RH WIND       PRES   REMARKS
Chicago O`Hare PTSUNNY   81  46  29 NW12      29.71S HX  80
Kankakee       PTSUNNY   78  53  41 N10       29.73F
Moline         MOSUNNY   83  56  39 NW13      29.76F HX  82
Mount Sterling SUNNY     81  52  36 N16       29.79S HX  80
Mount Vernon   CLOUDY    80  75  84 VRB3      29.68F HX  85
Pittsfield     SUNNY     82  54  36 N14G20    29.80S HX  81
Quincy         SUNNY     82  51  34 N13       29.81R HX  81
Rockford       PTSUNNY   81  52  36 NW14G23   29.74S HX  80
$$


CITY           SKY/WX    TMP DP  RH WIND       PRES   REMARKS
Burlington     MOSUNNY   81  59  47 NW8       29.79F HX  81
Cedar Rapids   SUNNY     76  58  53 NW17G26   29.81R
Des Moines     CLOUDY    73  51  46 NW18G30   29.89S
Kirksville     SUNNY     80  55  42 N16       29.87R HX  80
Ottumwa        CLOUDY    82  51  34 NW21G26   29.84R HX  81
St Louis       MOSUNNY   85  68  56 N17       29.74R HX  88
$$


CITY           SKY/WX    TMP DP  RH WIND       PRES   REMARKS
Terre Haute    CLOUDY    76  71  85 N3        29.70S
Evansville     CLOUDY    75  72  90 S3        29.68S
Indianapolis   LGT RAIN  70  67  90 SW5       29.72S
Lafayette      CLOUDY    70  69  97 CALM      29.72S
Madison        PTSUNNY   78  53  41 W14G20    29.70F
Milwaukee      MOSUNNY   81  44  27 NW16      29.69R HX  80
$$






USA.gov is the U.S. government's official web portal to all federal, state and local government web resources and services.